2013 Lower Weather,,,,,
4-Component Radiation Hourly Summary*,,,,,
,,,,,
Dataset Reference Format:,,,,,
,"[Year of data collection] Meteorological-Solar data from Dry Creek Experimental Watershed. Watershed Process Research Group, Boise State University",,,,
, URL: earth.boisestate.edu/drycreek. Multi-paged. [month and day of data download].,,,,
,,,,,
Dataset Header Description,,,,,
,Column.Variable-units| Description,,,,
,1. DateTime| Time stamp of variable collection time [MM/DD/YY  hr:mm],,,,
,2. SWin-W/m2|  Corrected Incoming shortwave [W/m2],,,,
,3. SWout-W/m2|   Corrected Outgoing shortwave  [W/m2],,,,
,4. LWin-W/m2|   Corrected Incoming longwave (Far Infra-Red)  [W/m2],,,,
,5. LWout-W/m2|   Corrected Outgoing longwave (Far Infra-Red)  [W/m2],,,,
,6. RadTemp-C| Radiometer Temperature [C],,,,
,,,,,
,Note: -6999 denotes missing data,,,,
,"*Prior to May 20, 2014, data is instantaneous sample measurement. Thereafter, data provided is hourly average. ",,,,
,,,,,
DateTime,SWin-W/m2,SWout-W/m2,LWin-W/m2,LWout-W/m2,RadTemp-C
1/1/2013 0:00,0,0,263.29,254.39,-6999
1/1/2013 1:00,0,0,261.28,252.48,-6999
1/1/2013 2:00,0,0,265.35,256.95,-6999
1/1/2013 3:00,0,0,264.13,255.73,-6999
1/1/2013 4:00,0,0,264.34,255.44,-6999
1/1/2013 5:00,0,0,270.69,262.39,-6999
1/1/2013 6:00,0,0,271.50,261.80,-6999
1/1/2013 7:00,0,0,277.78,266.98,-6999
1/1/2013 8:00,0,0,282.30,273.90,-6999
1/1/2013 9:00,17.84,11.81,283.28,273.58,-6999
1/1/2013 10:00,63.93,41.05,293.62,284.22,-6999
1/1/2013 11:00,112.2,71.1,300.65,291.65,-6999
1/1/2013 12:00,135.4,86.7,284.86,275.26,-6999
1/1/2013 13:00,131.7,80.8,291.82,283.02,-6999
1/1/2013 14:00,95.8,59.83,293.56,285.36,-6999
1/1/2013 15:00,41.17,25.23,284.74,277.24,-6999
1/1/2013 16:00,26.17,16.06,284.97,277.27,-6999
1/1/2013 17:00,3.23,1.88,279.74,271.94,-6999
1/1/2013 18:00,0,0,282.95,274.55,-6999
1/1/2013 19:00,0,0,284.85,277.25,-6999
1/1/2013 20:00,0,0,284.09,278.39,-6999
1/1/2013 21:00,0,0,282.82,279.82,-6999
1/1/2013 22:00,0,0,284.67,282.87,-6999
1/1/2013 23:00,0,0,288.87,286.37,-6999
1/2/2013 0:00,0,0,289.09,285.09,-6999
1/2/2013 1:00,0,0,292.49,290.69,-6999
1/2/2013 2:00,0,0,278.93,280.43,-6999
1/2/2013 3:00,0,0,283.28,285.48,-6999
1/2/2013 4:00,0,0,283.79,286.59,-6999
1/2/2013 5:00,0,0,283.99,287.19,-6999
1/2/2013 6:00,0,0,283.51,286.51,-6999
1/2/2013 7:00,0,0,283.84,286.04,-6999
1/2/2013 8:00,0,0,281.92,283.82,-6999
1/2/2013 9:00,11.88,8.03,283.08,286.08,-6999
1/2/2013 10:00,39.3,30.03,285.48,289.08,-6999
1/2/2013 11:00,82.8,64.67,288.19,292.39,-6999
1/2/2013 12:00,102.3,81.3,288.47,292.47,-6999
1/2/2013 13:00,140.7,108.7,287.67,291.57,-6999
1/2/2013 14:00,161.4,103.9,296.43,298.73,-6999
1/2/2013 15:00,104.8,61.03,286.92,288.62,-6999
1/2/2013 16:00,44.19,32.49,277.10,280.10,-6999
1/2/2013 17:00,15.94,11.36,283.28,285.38,-6999
1/2/2013 18:00,0,0,284.94,288.64,-6999
1/2/2013 19:00,0,0,287.51,291.01,-6999
1/2/2013 20:00,0,0,284.54,283.84,-6999
1/2/2013 21:00,0,0,281.12,281.42,-6999
1/2/2013 22:00,0,0,281.37,284.47,-6999
1/2/2013 23:00,0,0,280.42,285.12,-6999
1/3/2013 0:00,0,0,283.29,287.69,-6999
1/3/2013 1:00,0,0,284.15,288.25,-6999
1/3/2013 2:00,0,0,283.07,285.37,-6999
1/3/2013 3:00,0,0,284.10,287.20,-6999
1/3/2013 4:00,0,0.03,284.81,288.31,-6999
1/3/2013 5:00,0,0,284.37,288.67,-6999
1/3/2013 6:00,0,0,283.92,287.62,-6999
1/3/2013 7:00,0,0,284.74,288.34,-6999
1/3/2013 8:00,0,0,284.59,286.59,-6999
1/3/2013 9:00,23.19,16.05,288.43,290.83,-6999
1/3/2013 10:00,40.33,28.81,294.63,298.63,-6999
1/3/2013 11:00,53.66,36.4,301.68,304.88,-6999
1/3/2013 12:00,167.8,44.81,305.12,308.22,-6999
1/3/2013 13:00,124.4,67.63,306.05,310.05,-6999
1/3/2013 14:00,95.6,42.4,308.96,313.36,-6999
1/3/2013 15:00,65.04,28.69,306.79,310.89,-6999
1/3/2013 16:00,40.28,29.84,300.86,304.96,-6999
1/3/2013 17:00,8.99,7.89,296.34,300.34,-6999
1/3/2013 18:00,0,0,291.65,295.75,-6999
1/3/2013 19:00,0,0,292.75,296.65,-6999
1/3/2013 20:00,0,0,289.18,292.68,-6999
1/3/2013 21:00,0,0,290.07,293.97,-6999
1/3/2013 22:00,0,0,287.47,291.07,-6999
1/3/2013 23:00,0,0,286.82,290.52,-6999
1/4/2013 0:00,0,0,289.75,293.35,-6999
1/4/2013 1:00,0,0,289.12,292.82,-6999
1/4/2013 2:00,0,0,286.95,290.15,-6999
1/4/2013 3:00,0,0,287.82,291.12,-6999
1/4/2013 4:00,0,0,290.01,293.31,-6999
1/4/2013 5:00,0,0,292.40,296.20,-6999
1/4/2013 6:00,0,0,291.31,295.11,-6999
1/4/2013 7:00,0,0,291.65,295.05,-6999
1/4/2013 8:00,0,0,293.42,296.62,-6999
1/4/2013 9:00,16.56,10.64,291.45,294.65,-6999
1/4/2013 10:00,34.84,22.23,299.18,302.58,-6999
1/4/2013 11:00,49.5,29.75,304.21,307.51,-6999
1/4/2013 12:00,156,33.34,305.36,308.76,-6999
1/4/2013 13:00,165.2,42,307.85,310.75,-6999
1/4/2013 14:00,136.1,37.69,298.21,301.31,-6999
1/4/2013 15:00,84.3,38.04,301.33,304.53,-6999
1/4/2013 16:00,38.2,26.06,294.92,298.12,-6999
1/4/2013 17:00,7.5,6.69,300.49,303.69,-6999
1/4/2013 18:00,0,0,297.06,300.46,-6999
1/4/2013 19:00,0,0,295.93,299.33,-6999
1/4/2013 20:00,0,0,297.96,301.16,-6999
1/4/2013 21:00,0,0,296.53,299.73,-6999
1/4/2013 22:00,0,0,296.20,299.80,-6999
1/4/2013 23:00,0,0,298.17,301.47,-6999
1/5/2013 0:00,0,0,295.89,299.29,-6999
1/5/2013 1:00,0,0,294.33,297.83,-6999
1/5/2013 2:00,0,0,293.77,297.17,-6999
1/5/2013 3:00,0,0,295.45,299.45,-6999
1/5/2013 4:00,0,0,296.67,300.87,-6999
1/5/2013 5:00,0,0,297.01,301.01,-6999
1/5/2013 6:00,0,0,296.58,300.38,-6999
1/5/2013 7:00,0,0,292.29,295.99,-6999
1/5/2013 8:00,0,0.42,295.01,298.41,-6999
1/5/2013 9:00,20.58,10.89,298.33,301.63,-6999
1/5/2013 10:00,45.13,24.81,297.33,300.13,-6999
1/5/2013 11:00,67.34,33.58,304.27,307.07,-6999
1/5/2013 12:00,189.7,35.89,306.12,309.02,-6999
1/5/2013 13:00,139.4,52.47,303.06,306.36,-6999
1/5/2013 14:00,162.5,70,300.21,303.11,-6999
1/5/2013 15:00,107,49.55,297.10,299.80,-6999
1/5/2013 16:00,55.43,30.68,295.56,298.26,-6999
1/5/2013 17:00,10.43,6.57,294.99,297.59,-6999
1/5/2013 18:00,0,0,293.37,296.17,-6999
1/5/2013 19:00,0,0,292.94,295.94,-6999
1/5/2013 20:00,0,0,294.35,297.35,-6999
1/5/2013 21:00,0,0,291.84,295.04,-6999
1/5/2013 22:00,0,0,294.13,297.33,-6999
1/5/2013 23:00,0,0,292.17,295.27,-6999
1/6/2013 0:00,0,0,294.37,297.27,-6999
1/6/2013 1:00,0,0,295.36,298.46,-6999
1/6/2013 2:00,0.3,0.78,296.03,299.23,-6999
1/6/2013 3:00,0,0,298.46,301.36,-6999
1/6/2013 4:00,0,0,298.49,301.59,-6999
1/6/2013 5:00,0,0,301.38,304.68,-6999
1/6/2013 6:00,0,0,296.68,300.38,-6999
1/6/2013 7:00,0,0,289.56,293.26,-6999
1/6/2013 8:00,0,0,287.61,291.51,-6999
1/6/2013 9:00,33.53,14.44,293.47,297.07,-6999
1/6/2013 10:00,108,43.9,302.22,306.62,-6999
1/6/2013 11:00,185.4,72.1,303.42,307.32,-6999
1/6/2013 12:00,244.6,50.68,304.89,308.79,-6999
1/6/2013 13:00,387.5,34.14,302.18,305.98,-6999
1/6/2013 14:00,298.2,75.8,302.94,306.94,-6999
1/6/2013 15:00,184.4,30.41,301.21,304.81,-6999
1/6/2013 16:00,48.43,23.17,293.72,296.52,-6999
1/6/2013 17:00,15.83,7.77,293.88,295.88,-6999
1/6/2013 18:00,0,0,294.98,297.18,-6999
1/6/2013 19:00,0,0,293.56,294.96,-6999
1/6/2013 20:00,0,0,294.98,295.08,-6999
1/6/2013 21:00,0,0,293.99,295.19,-6999
1/6/2013 22:00,0,0.11,294.38,293.78,-6999
1/6/2013 23:00,0,0,294.34,295.44,-6999
1/7/2013 0:00,0,0,287.79,289.09,-6999
1/7/2013 1:00,0,0.03,291.37,291.67,-6999
1/7/2013 2:00,0,0,292.50,292.40,-6999
1/7/2013 3:00,0,0,290.59,291.59,-6999
1/7/2013 4:00,0,0,284.05,283.55,-6999
1/7/2013 5:00,0,0.45,289.23,288.33,-6999
1/7/2013 6:00,0,0,287.16,282.26,-6999
1/7/2013 7:00,0,0,283.62,280.32,-6999
1/7/2013 8:00,0.13,0,284.67,280.07,-6999
1/7/2013 9:00,20.66,10.27,285.06,276.16,-6999
1/7/2013 10:00,68.52,35.63,287.21,274.41,-6999
1/7/2013 11:00,93,51.66,287.28,275.48,-6999
1/7/2013 12:00,56.19,37.7,287.08,270.68,-6999
1/7/2013 13:00,47.72,38.81,289.09,271.89,-6999
1/7/2013 14:00,46.51,58.47,290.67,274.07,-6999
1/7/2013 15:00,40,55.12,289.02,273.02,-6999
1/7/2013 16:00,18.91,26.09,290.63,273.83,-6999
1/7/2013 17:00,6.97,10.21,290.34,273.74,-6999
1/7/2013 18:00,0,0,293.57,283.17,-6999
1/7/2013 19:00,0,0,294.17,280.77,-6999
1/7/2013 20:00,0,0,298.53,289.03,-6999
1/7/2013 21:00,0,0,300.35,288.75,-6999
1/7/2013 22:00,0.03,0,300.19,290.19,-6999
1/7/2013 23:00,0,0,299.35,290.25,-6999
1/8/2013 0:00,0,0.06,299.75,290.75,-6999
1/8/2013 1:00,0,0,298.58,286.48,-6999
1/8/2013 2:00,0,0,296.85,292.15,-6999
1/8/2013 3:00,0,0.03,296.81,291.41,-6999
1/8/2013 4:00,0,0,297.16,294.96,-6999
1/8/2013 5:00,0,0,295.93,293.93,-6999
1/8/2013 6:00,0,0.39,294.04,293.44,-6999
1/8/2013 7:00,0,0,293.90,293.90,-6999
1/8/2013 8:00,0,0,293.86,295.26,-6999
1/8/2013 9:00,25.71,32.58,294.52,295.62,-6999
1/8/2013 10:00,97,60.89,297.36,297.46,-6999
1/8/2013 11:00,109,67.78,299.58,300.18,-6999
1/8/2013 12:00,192.6,110.2,301.60,302.00,-6999
1/8/2013 13:00,193.4,109.9,303.16,303.86,-6999
1/8/2013 14:00,121.4,68.64,303.72,302.82,-6999
1/8/2013 15:00,299.1,142.3,303.87,304.07,-6999
1/8/2013 16:00,64.25,32.46,304.99,305.99,-6999
1/8/2013 17:00,13.04,5.42,304.99,304.79,-6999
1/8/2013 18:00,0.51,0.34,305.81,306.31,-6999
1/8/2013 19:00,0,0,306.13,307.13,-6999
1/8/2013 20:00,0,0,305.55,307.35,-6999
1/8/2013 21:00,0,0,307.18,308.98,-6999
1/8/2013 22:00,0,0,304.56,301.56,-6999
1/8/2013 23:00,0,0,305.68,300.08,-6999
1/9/2013 0:00,0,0.45,306.81,299.31,-6999
1/9/2013 1:00,0,0,304.56,299.56,-6999
1/9/2013 2:00,0,0,303.08,298.38,-6999
1/9/2013 3:00,0,0,303.63,298.43,-6999
1/9/2013 4:00,0,0,303.34,297.74,-6999
1/9/2013 5:00,0,0,303.89,297.09,-6999
1/9/2013 6:00,0,0,304.34,298.34,-6999
1/9/2013 7:00,0,0,304.64,298.04,-6999
1/9/2013 8:00,0,0,306.30,297.00,-6999
1/9/2013 9:00,18.33,7.57,306.45,299.75,-6999
1/9/2013 10:00,51.53,20.52,306.35,298.85,-6999
1/9/2013 11:00,105.1,39.69,307.26,301.26,-6999
1/9/2013 12:00,172.2,55.32,306.70,300.30,-6999
1/9/2013 13:00,194,56.43,306.40,299.60,-6999
1/9/2013 14:00,129.9,36.61,306.45,297.25,-6999
1/9/2013 15:00,89.3,23.5,305.19,295.29,-6999
1/9/2013 16:00,41.88,9.85,305.48,297.08,-6999
1/9/2013 17:00,5.29,0.78,305.99,296.89,-6999
1/9/2013 18:00,0,0,305.53,299.03,-6999
1/9/2013 19:00,0,0,309.01,301.01,-6999
1/9/2013 20:00,0,0,313.95,306.45,-6999
1/9/2013 21:00,0,0,310.75,303.65,-6999
1/9/2013 22:00,0,0,310.35,302.55,-6999
1/9/2013 23:00,0,0,304.38,296.68,-6999
1/10/2013 0:00,0,0,302.13,292.73,-6999
1/10/2013 1:00,0,0,300.39,291.29,-6999
1/10/2013 2:00,0,0,292.61,284.51,-6999
1/10/2013 3:00,0,0,291.68,283.18,-6999
1/10/2013 4:00,0,0,286.00,277.60,-6999
1/10/2013 5:00,0,0,278.87,270.67,-6999
1/10/2013 6:00,0,0,275.08,263.98,-6999
1/10/2013 7:00,0,0,273.60,263.00,-6999
1/10/2013 8:00,0,0,272.66,260.96,-6999
1/10/2013 9:00,22.17,14.79,273.28,262.08,-6999
1/10/2013 10:00,99.8,63.92,270.47,261.67,-6999
1/10/2013 11:00,113.1,77.4,270.68,263.98,-6999
1/10/2013 12:00,169.5,121.3,269.56,260.46,-6999
1/10/2013 13:00,281.2,206.6,269.99,260.99,-6999
1/10/2013 14:00,190.2,139.2,268.85,258.25,-6999
1/10/2013 15:00,241.8,179.6,266.58,255.68,-6999
1/10/2013 16:00,62.91,46.16,265.22,252.52,-6999
1/10/2013 17:00,10.3,7.27,264.18,252.18,-6999
1/10/2013 18:00,0,0,262.76,252.16,-6999
1/10/2013 19:00,0,0,262.43,252.53,-6999
1/10/2013 20:00,0,0,262.14,251.34,-6999
1/10/2013 21:00,0,0,262.04,252.34,-6999
1/10/2013 22:00,0,0,261.27,247.87,-6999
1/10/2013 23:00,0,0,259.60,245.50,-6999
1/11/2013 0:00,0,0,259.44,245.84,-6999
1/11/2013 1:00,0,0,259.44,246.74,-6999
1/11/2013 2:00,0,0,259.37,248.47,-6999
1/11/2013 3:00,0,0,257.84,247.24,-6999
1/11/2013 4:00,0,0,258.26,247.96,-6999
1/11/2013 5:00,0,0,258.40,246.40,-6999
1/11/2013 6:00,0,0,256.08,242.48,-6999
1/11/2013 7:00,0,0,254.82,236.62,-6999
1/11/2013 8:00,0,0,253.56,237.16,-6999
1/11/2013 9:00,38.01,25.82,252.74,235.94,-6999
1/11/2013 10:00,133.2,89.9,254.72,236.42,-6999
1/11/2013 11:00,202.5,130.8,253.33,234.33,-6999
1/11/2013 12:00,331.5,111.6,251.95,233.75,-6999
1/11/2013 13:00,395,104.7,253.89,236.29,-6999
1/11/2013 14:00,321,140.8,255.31,240.51,-6999
1/11/2013 15:00,212.5,99.4,255.05,241.05,-6999
1/11/2013 16:00,51.11,34.65,252.57,237.57,-6999
1/11/2013 17:00,9.37,9.17,251.28,236.18,-6999
1/11/2013 18:00,0,0,250.75,234.25,-6999
1/11/2013 19:00,0,0,250.63,236.43,-6999
1/11/2013 20:00,0,0,249.36,235.66,-6999
1/11/2013 21:00,0,0,245.80,232.50,-6999
1/11/2013 22:00,0,0,243.56,229.86,-6999
1/11/2013 23:00,0,0,242.91,231.71,-6999
1/12/2013 0:00,0,0,242.18,229.18,-6999
1/12/2013 1:00,0,0,241.73,232.13,-6999
1/12/2013 2:00,0,0,241.07,229.47,-6999
1/12/2013 3:00,0,0,239.16,226.26,-6999
1/12/2013 4:00,0,0,238.80,228.70,-6999
1/12/2013 5:00,0,0,240.89,230.29,-6999
1/12/2013 6:00,0,0,238.69,229.49,-6999
1/12/2013 7:00,0,0,242.58,233.48,-6999
1/12/2013 8:00,0,0,243.21,234.11,-6999
1/12/2013 9:00,22.51,20.14,242.75,233.65,-6999
1/12/2013 10:00,43.7,45.53,250.30,242.20,-6999
1/12/2013 11:00,72.5,59.75,253.12,243.22,-6999
1/12/2013 12:00,400.8,70.8,255.09,246.79,-6999
1/12/2013 13:00,432,73,256.57,246.37,-6999
1/12/2013 14:00,418,68.54,263.31,253.71,-6999
1/12/2013 15:00,341.8,55.72,260.79,252.99,-6999
1/12/2013 16:00,37.87,41.54,249.02,240.32,-6999
1/12/2013 17:00,36.93,24.5,251.07,244.17,-6999
1/12/2013 18:00,0,0.17,244.66,236.36,-6999
1/12/2013 19:00,0,0,248.62,241.62,-6999
1/12/2013 20:00,0,0,248.91,239.11,-6999
1/12/2013 21:00,0,0,247.47,237.87,-6999
1/12/2013 22:00,0,0,246.20,238.70,-6999
1/12/2013 23:00,0,0,244.18,235.68,-6999
1/13/2013 0:00,0,0.17,243.41,234.01,-6999
1/13/2013 1:00,0,0,242.25,236.35,-6999
1/13/2013 2:00,0,0,241.66,233.56,-6999
1/13/2013 3:00,0,0,243.20,233.70,-6999
1/13/2013 4:00,0,0,241.19,231.79,-6999
1/13/2013 5:00,0,0,238.24,229.54,-6999
1/13/2013 6:00,0,0,238.93,230.53,-6999
1/13/2013 7:00,0,0,240.26,232.76,-6999
1/13/2013 8:00,0,0.06,238.37,231.67,-6999
1/13/2013 9:00,25.55,20.56,241.60,233.60,-6999
1/13/2013 10:00,46.99,44.56,248.41,240.71,-6999
1/13/2013 11:00,108,69.84,250.95,243.85,-6999
1/13/2013 12:00,287.5,104.7,254.21,246.11,-6999
1/13/2013 13:00,430.4,80.2,256.29,248.19,-6999
1/13/2013 14:00,440.8,88.5,258.79,252.49,-6999
1/13/2013 15:00,401.4,136.9,253.42,247.82,-6999
1/13/2013 16:00,82.2,58.14,244.72,237.92,-6999
1/13/2013 17:00,17.86,14.77,239.86,230.96,-6999
1/13/2013 18:00,0,0,236.64,232.14,-6999
1/13/2013 19:00,0,0,238.32,233.42,-6999
1/13/2013 20:00,0,0,236.26,230.16,-6999
1/13/2013 21:00,0,0,238.63,234.03,-6999
1/13/2013 22:00,0,0,237.46,232.66,-6999
1/13/2013 23:00,0,0,236.71,231.01,-6999
1/14/2013 0:00,0,0,236.43,229.43,-6999
1/14/2013 1:00,0,0,237.84,232.14,-6999
1/14/2013 2:00,0,0,238.70,231.70,-6999
1/14/2013 3:00,0,0,238.12,233.32,-6999
1/14/2013 4:00,0,0,237.83,228.03,-6999
1/14/2013 5:00,0,0,238.69,229.69,-6999
1/14/2013 6:00,0,0,239.11,230.71,-6999
1/14/2013 7:00,0,0,241.29,235.09,-6999
1/14/2013 8:00,0,0.14,242.21,236.01,-6999
1/14/2013 9:00,35.52,22.99,243.47,236.67,-6999
1/14/2013 10:00,98.9,65.38,245.58,235.88,-6999
1/14/2013 11:00,181.6,112.7,248.00,238.70,-6999
1/14/2013 12:00,274.8,140.6,253.41,245.51,-6999
1/14/2013 13:00,269.3,155.3,258.30,251.20,-6999
1/14/2013 14:00,262.4,144.8,258.61,252.31,-6999
1/14/2013 15:00,192.7,121.9,252.92,246.42,-6999
1/14/2013 16:00,109.4,69.95,254.20,247.20,-6999
1/14/2013 17:00,18.34,12.67,250.24,243.24,-6999
1/14/2013 18:00,0,0,247.55,240.45,-6999
1/14/2013 19:00,0,0,250.19,242.49,-6999
1/14/2013 20:00,0,0,252.22,245.52,-6999
1/14/2013 21:00,0,0,251.80,245.00,-6999
1/14/2013 22:00,0,0,252.36,241.16,-6999
1/14/2013 23:00,0,0,254.30,241.60,-6999
1/15/2013 0:00,0,0,255.26,242.96,-6999
1/15/2013 1:00,0,0,254.78,242.58,-6999
1/15/2013 2:00,0,0,255.00,243.30,-6999
1/15/2013 3:00,0,0,255.38,241.98,-6999
1/15/2013 4:00,0,0,261.50,247.00,-6999
1/15/2013 5:00,0,0,263.04,247.84,-6999
1/15/2013 6:00,0,0,262.47,248.57,-6999
1/15/2013 7:00,0,0,259.54,245.54,-6999
1/15/2013 8:00,0.08,0,261.09,245.39,-6999
1/15/2013 9:00,49.59,31.91,267.42,250.72,-6999
1/15/2013 10:00,133.3,74.4,270.18,253.08,-6999
1/15/2013 11:00,195.6,88.8,279.43,265.43,-6999
1/15/2013 12:00,386.5,103.7,274.78,263.18,-6999
1/15/2013 13:00,402.4,104.2,282.93,270.63,-6999
1/15/2013 14:00,310.9,80,284.18,275.18,-6999
1/15/2013 15:00,246.3,71.8,284.34,276.14,-6999
1/15/2013 16:00,77.4,43,284.55,275.75,-6999
1/15/2013 17:00,24.78,14.46,285.05,278.95,-6999
1/15/2013 18:00,0,0.81,287.52,279.62,-6999
1/15/2013 19:00,0,0,289.23,281.53,-6999
1/15/2013 20:00,0,0.25,287.60,279.20,-6999
1/15/2013 21:00,0,0,286.10,278.40,-6999
1/15/2013 22:00,0,0,288.74,279.74,-6999
1/15/2013 23:00,0,0,291.68,283.28,-6999
1/16/2013 0:00,0,0,301.96,293.36,-6999
1/16/2013 1:00,0,0,299.52,290.92,-6999
1/16/2013 2:00,0,0,297.30,290.20,-6999
1/16/2013 3:00,0,0,307.79,300.89,-6999
1/16/2013 4:00,0,0,296.32,289.92,-6999
1/16/2013 5:00,0,0,300.84,294.04,-6999
1/16/2013 6:00,0,0,300.04,293.84,-6999
1/16/2013 7:00,0,0,305.01,298.51,-6999
1/16/2013 8:00,0,0.22,297.40,290.70,-6999
1/16/2013 9:00,38.51,27.44,297.79,290.79,-6999
1/16/2013 10:00,63.22,44.15,299.49,295.89,-6999
1/16/2013 11:00,241.9,56.81,300.59,297.49,-6999
1/16/2013 12:00,454.7,64.42,289.74,286.64,-6999
1/16/2013 13:00,466.2,71.4,291.39,286.09,-6999
1/16/2013 14:00,429.3,66.64,294.68,286.28,-6999
1/16/2013 15:00,344,59.81,291.32,283.62,-6999
1/16/2013 16:00,59.29,45.37,292.18,282.88,-6999
1/16/2013 17:00,26.21,18.57,301.69,293.39,-6999
1/16/2013 18:00,0,0.36,301.23,294.33,-6999
1/16/2013 19:00,0,0.2,305.10,299.00,-6999
1/16/2013 20:00,0,0,303.74,296.84,-6999
1/16/2013 21:00,0,0,304.65,298.85,-6999
1/16/2013 22:00,0,0,305.16,297.26,-6999
1/16/2013 23:00,0,0,302.64,295.14,-6999
1/17/2013 0:00,0,0.42,303.74,296.64,-6999
1/17/2013 1:00,0,0,303.09,295.39,-6999
1/17/2013 2:00,0,0,303.44,295.74,-6999
1/17/2013 3:00,0,0,303.64,298.14,-6999
1/17/2013 4:00,0,0,300.04,292.44,-6999
1/17/2013 5:00,0,0,300.74,293.94,-6999
1/17/2013 6:00,0,0,300.54,291.84,-6999
1/17/2013 7:00,0,0,308.61,300.91,-6999
1/17/2013 8:00,0,0.64,306.47,299.47,-6999
1/17/2013 9:00,29.04,20.59,305.81,298.41,-6999
1/17/2013 10:00,60.2,42.25,312.80,305.20,-6999
1/17/2013 11:00,313.8,52.91,317.82,311.52,-6999
1/17/2013 12:00,413.4,65.59,314.21,305.51,-6999
1/17/2013 13:00,413.2,74,315.21,306.81,-6999
1/17/2013 14:00,399,75.9,312.03,304.83,-6999
1/17/2013 15:00,337.2,60.49,316.01,308.71,-6999
1/17/2013 16:00,65.88,45.93,313.52,305.12,-6999
1/17/2013 17:00,28.41,19.55,311.57,303.87,-6999
1/17/2013 18:00,0,0.2,311.87,305.07,-6999
1/17/2013 19:00,0,0,311.47,304.87,-6999
1/17/2013 20:00,0,0,309.01,302.01,-6999
1/17/2013 21:00,0,0,307.99,302.99,-6999
1/17/2013 22:00,0,0,308.45,302.25,-6999
1/17/2013 23:00,0,0,305.96,301.56,-6999
1/18/2013 0:00,0,0,310.74,306.94,-6999
1/18/2013 1:00,0,0,311.30,307.40,-6999
1/18/2013 2:00,0,0,311.30,309.20,-6999
1/18/2013 3:00,0,0,307.63,306.13,-6999
1/18/2013 4:00,0,0,305.26,302.96,-6999
1/18/2013 5:00,0,0,304.80,301.60,-6999
1/18/2013 6:00,0,0,304.00,301.00,-6999
1/18/2013 7:00,0,0,306.52,303.72,-6999
1/18/2013 8:00,0,0.59,299.88,293.38,-6999
1/18/2013 9:00,30.72,21.7,302.23,294.03,-6999
1/18/2013 10:00,76.8,43.31,310.91,303.41,-6999
1/18/2013 11:00,347.7,49.54,306.53,299.23,-6999
1/18/2013 12:00,425.7,67.79,308.79,301.49,-6999
1/18/2013 13:00,457,102.1,309.99,302.79,-6999
1/18/2013 14:00,399.2,94.6,310.73,304.13,-6999
1/18/2013 15:00,315.3,75.4,306.78,300.48,-6999
1/18/2013 16:00,109.2,61.73,308.10,303.20,-6999
1/18/2013 17:00,35.79,21.48,300.12,294.42,-6999
1/18/2013 18:00,0,0.28,300.51,295.71,-6999
1/18/2013 19:00,0,0,305.08,299.28,-6999
1/18/2013 20:00,0,0,300.39,296.19,-6999
1/18/2013 21:00,0,0,300.78,296.28,-6999
1/18/2013 22:00,0,0,296.86,285.76,-6999
1/18/2013 23:00,0,0,296.18,281.88,-6999
1/19/2013 0:00,0,0,296.86,286.56,-6999
1/19/2013 1:00,0,0,297.34,286.74,-6999
1/19/2013 2:00,0,0.64,296.86,286.06,-6999
1/19/2013 3:00,0,0,298.09,286.89,-6999
1/19/2013 4:00,0,0,300.26,292.76,-6999
1/19/2013 5:00,0,0,303.87,295.47,-6999
1/19/2013 6:00,0,0,299.89,295.49,-6999
1/19/2013 7:00,0,0,300.13,295.53,-6999
1/19/2013 8:00,0,0.9,301.14,295.74,-6999
1/19/2013 9:00,34.17,21.48,300.56,295.96,-6999
1/19/2013 10:00,90.9,42.53,303.51,299.71,-6999
1/19/2013 11:00,336.2,56.63,308.77,303.97,-6999
1/19/2013 12:00,405.8,64.71,310.05,304.75,-6999
1/19/2013 13:00,482.6,91,310.79,305.59,-6999
1/19/2013 14:00,428.8,80.6,310.36,305.16,-6999
1/19/2013 15:00,356,68.8,309.36,303.36,-6999
1/19/2013 16:00,91.4,52.2,308.58,304.48,-6999
1/19/2013 17:00,32.58,21.28,308.57,304.87,-6999
1/19/2013 18:00,0,0,303.37,298.87,-6999
1/19/2013 19:00,0,0.28,303.87,299.37,-6999
1/19/2013 20:00,0,0,304.18,302.48,-6999
1/19/2013 21:00,0,0,304.67,303.17,-6999
1/19/2013 22:00,0,0,307.57,302.57,-6999
1/19/2013 23:00,0,0,304.38,300.88,-6999
1/20/2013 0:00,0,0.17,302.79,299.59,-6999
1/20/2013 1:00,0,0,301.35,298.25,-6999
1/20/2013 2:00,0,0,303.13,300.53,-6999
1/20/2013 3:00,0,0,313.81,311.41,-6999
1/20/2013 4:00,0,0,310.03,307.83,-6999
1/20/2013 5:00,0,0,310.56,308.26,-6999
1/20/2013 6:00,0,0,309.68,306.58,-6999
1/20/2013 7:00,0,0,311.54,307.34,-6999
1/20/2013 8:00,0,0.03,313.91,310.31,-6999
1/20/2013 9:00,29.06,20.08,315.70,312.90,-6999
1/20/2013 10:00,115.2,40.71,323.58,320.68,-6999
1/20/2013 11:00,387.6,51.79,324.53,321.53,-6999
1/20/2013 12:00,453.2,73.9,327.77,324.47,-6999
1/20/2013 13:00,437.7,98.2,321.86,319.76,-6999
1/20/2013 14:00,379.9,92.1,325.23,322.93,-6999
1/20/2013 15:00,331.7,76.7,331.99,330.39,-6999
1/20/2013 16:00,109.5,58.75,328.60,327.40,-6999
1/20/2013 17:00,45.74,25.68,325.97,324.67,-6999
1/20/2013 18:00,0,0,326.73,327.13,-6999
1/20/2013 19:00,0,0.48,326.34,327.34,-6999
1/20/2013 20:00,0,0.11,324.20,324.40,-6999
1/20/2013 21:00,0,0,323.92,323.82,-6999
1/20/2013 22:00,0,0,325.30,326.50,-6999
1/20/2013 23:00,0,0,328.21,329.71,-6999
1/21/2013 0:00,0,0,327.86,329.06,-6999
1/21/2013 1:00,0,0,327.64,328.54,-6999
1/21/2013 2:00,0,0,326.48,327.88,-6999
1/21/2013 3:00,0,0,325.05,326.45,-6999
1/21/2013 4:00,0,0,323.66,324.86,-6999
1/21/2013 5:00,0,0.17,323.76,325.26,-6999
1/21/2013 6:00,0,0,322.76,325.86,-6999
1/21/2013 7:00,0,0,322.79,327.29,-6999
1/21/2013 8:00,0,0.98,321.08,323.38,-6999
1/21/2013 9:00,33.86,22.24,323.11,325.71,-6999
1/21/2013 10:00,154.9,42.86,328.54,329.54,-6999
1/21/2013 11:00,394.2,51.84,327.43,328.83,-6999
1/21/2013 12:00,486.2,55.15,334.73,335.83,-6999
1/21/2013 13:00,465.7,81.4,337.19,338.19,-6999
1/21/2013 14:00,429.8,81.5,339.01,341.01,-6999
1/21/2013 15:00,350.5,66.14,336.75,339.55,-6999
1/21/2013 16:00,85.4,49.34,336.43,339.13,-6999
1/21/2013 17:00,40.99,24.19,335.15,337.65,-6999
1/21/2013 18:00,0,0.48,328.79,330.69,-6999
1/21/2013 19:00,0,0.06,329.39,331.29,-6999
1/21/2013 20:00,0,0,328.33,332.43,-6999
1/21/2013 21:00,0,0,326.62,331.02,-6999
1/21/2013 22:00,0,0.42,323.98,326.48,-6999
1/21/2013 23:00,0,0,324.18,325.78,-6999
1/22/2013 0:00,0,0,322.31,323.31,-6999
1/22/2013 1:00,0,0,318.22,318.42,-6999
1/22/2013 2:00,0,0,318.87,317.77,-6999
1/22/2013 3:00,0,0,317.62,315.72,-6999
1/22/2013 4:00,0,0,316.22,312.52,-6999
1/22/2013 5:00,0,0,312.11,309.91,-6999
1/22/2013 6:00,0,0,316.43,312.43,-6999
1/22/2013 7:00,0,0,311.81,306.41,-6999
1/22/2013 8:00,0,0.14,312.57,309.47,-6999
1/22/2013 9:00,40.58,24.81,319.91,318.31,-6999
1/22/2013 10:00,160.7,42.78,330.53,331.73,-6999
1/22/2013 11:00,375.9,60.45,334.66,336.06,-6999
1/22/2013 12:00,439.7,84.8,338.05,340.55,-6999
1/22/2013 13:00,404.4,116.7,-6999.00,-6999.00,-6999
1/22/2013 14:00,411.2,85.6,336.95,339.95,-6999
1/22/2013 15:00,334.6,81.9,331.48,334.38,-6999
1/22/2013 16:00,113.7,56.76,327.69,328.59,-6999
1/22/2013 17:00,48.39,26.15,320.93,326.23,-6999
1/22/2013 18:00,0,0,314.75,318.25,-6999
1/22/2013 19:00,0,0.28,311.47,316.97,-6999
1/22/2013 20:00,0,0,308.30,313.80,-6999
1/22/2013 21:00,0,0,309.30,313.70,-6999
1/22/2013 22:00,0,0,308.30,313.10,-6999
1/22/2013 23:00,0,0,309.83,314.03,-6999
1/23/2013 0:00,0,0.28,306.10,306.30,-6999
1/23/2013 1:00,0,0,306.47,304.27,-6999
1/23/2013 2:00,0,0.14,304.24,303.24,-6999